When you browse on this site, cookies collect data to enhance your experience and personalize the content and advertising you see.
Visit our Privacy Policy to learn more. By continuing to use the site, you agree to this use of cookies and data.
  • In Lithuania
  • List of Countries
  • For 7 days
  • Water Temperature
  • Satellite Maps
  • Weather Map
  • Weather Widgets
  • user-avatar
    Login

    Hourly Weather Zhurishki

    Today, 20 March, Wednesday

    Time Temperature Precipitation Wind Pressure Humidity
    00:00 0°C° 0.1 mm 3 mps 749 mmHg 98%
    01:00 0°C° 0 mm 3 mps 749 mmHg 98%
    02:00 +1°C° 0 mm 2 mps 749 mmHg 97%
    03:00 +1°C° 0 mm 2 mps 748 mmHg 99%
    04:00 +1°C° 0.1 mm 2 mps 748 mmHg 99%
    05:00 +1°C° 0.1 mm 2 mps 748 mmHg 99%
    06:00 +1°C° 0.1 mm 2 mps 748 mmHg 99%
    07:00 +1°C° 0 mm 2 mps 749 mmHg 99%
    08:00 +1°C° 0 mm 2 mps 749 mmHg 99%
    09:00 +1°C° 0 mm 2 mps 749 mmHg 99%
    10:00 +1°C° 0 mm 2 mps 749 mmHg 99%
    11:00 +1°C° 0 mm 2 mps 749 mmHg 99%
    12:00 +1°C° 0 mm 2 mps 749 mmHg 99%
    13:00 +1°C° 0.1 mm 2 mps 749 mmHg 99%
    14:00 +1°C° 0.1 mm 2 mps 749 mmHg 99%
    15:00 +1°C° 0.1 mm 2 mps 749 mmHg 99%
    16:00 +1°C° 0.1 mm 2 mps 749 mmHg 99%
    17:00 +1°C° 0.1 mm 2 mps 749 mmHg 99%
    18:00 +1°C° 0.1 mm 2 mps 749 mmHg 99%
    19:00 -1°C° 0 mm 2 mps 749 mmHg 98%
    20:00 -1°C° 0 mm 2 mps 749 mmHg 98%
    21:00 -2°C° 0 mm 3 mps 749 mmHg 98%
    22:00 -2°C° 0 mm 2 mps 749 mmHg 97%
    23:00 -2°C° 0 mm 2 mps 749 mmHg 97%

    Tomorrow, 21 March, Thursday

    Time Temperature Precipitation Wind Pressure Humidity
    00:00 -2°C° 0 mm 2 mps 749 mmHg 96%
    01:00 -3°C° 0 mm 2 mps 749 mmHg 95%
    02:00 -3°C° 0 mm 2 mps 749 mmHg 94%
    03:00 -3°C° 0 mm 2 mps 749 mmHg 93%
    04:00 -3°C° 0 mm 2 mps 748 mmHg 92%
    05:00 -4°C° 0 mm 2 mps 748 mmHg 92%
    06:00 -4°C° 0 mm 2 mps 748 mmHg 91%
    07:00 -3°C° 0 mm 2 mps 748 mmHg 90%
    08:00 -2°C° 0 mm 3 mps 747 mmHg 89%
    09:00 -2°C° 0 mm 3 mps 747 mmHg 87%
    10:00 -1°C° 0 mm 3 mps 747 mmHg 89%
    11:00 -2°C° 0 mm 4 mps 746 mmHg 90%
    12:00 -1°C° 0 mm 4 mps 746 mmHg 91%
    13:00 -1°C° 0.2 mm 4 mps 746 mmHg 92%
    14:00 -1°C° 0.2 mm 4 mps 745 mmHg 93%
    15:00 -1°C° 0.2 mm 4 mps 745 mmHg 95%
    16:00 0°C° 0.2 mm 3 mps 745 mmHg 95%
    17:00 0°C° 0.2 mm 3 mps 745 mmHg 95%
    18:00 +1°C° 0.2 mm 2 mps 745 mmHg 96%
    19:00 0°C° 0 mm 3 mps 745 mmHg 95%
    20:00 0°C° 0 mm 3 mps 745 mmHg 94%
    21:00 -1°C° 0 mm 4 mps 746 mmHg 93%
    22:00 -2°C° 0 mm 4 mps 746 mmHg 92%
    23:00 -2°C° 0 mm 4 mps 746 mmHg 92%

    Day after tomorrow, 22 March, Friday

    Time Temperature Precipitation Wind Pressure Humidity
    00:00 -3°C° 0 mm 4 mps 746 mmHg 92%
    01:00 -2°C° 0 mm 3 mps 746 mmHg 92%
    02:00 -2°C° 0 mm 3 mps 746 mmHg 92%
    03:00 -4°C° 0 mm 3 mps 746 mmHg 92%
    04:00 -4°C° 0 mm 3 mps 745 mmHg 92%
    05:00 -4°C° 0 mm 3 mps 745 mmHg 92%
    06:00 -3°C° 0 mm 2 mps 745 mmHg 92%
    07:00 -3°C° 0 mm 2 mps 745 mmHg 91%
    08:00 -2°C° 0 mm 2 mps 745 mmHg 90%
    09:00 -1°C° 0 mm 2 mps 745 mmHg 90%
    10:00 -1°C° 0 mm 3 mps 744 mmHg 92%
    11:00 0°C° 0 mm 3 mps 744 mmHg 94%
    12:00 0°C° 0 mm 4 mps 743 mmHg 97%
    13:00 0°C° 0.2 mm 4 mps 742 mmHg 96%
    14:00 0°C° 0.2 mm 4 mps 741 mmHg 96%
    15:00 0°C° 0.2 mm 5 mps 740 mmHg 95%
    16:00 0°C° 0.4 mm 5 mps 739 mmHg 96%
    17:00 0°C° 0.4 mm 5 mps 739 mmHg 96%
    18:00 -1°C° 0.4 mm 6 mps 738 mmHg 96%
    19:00 -1°C° 0.3 mm 6 mps 737 mmHg 92%
    20:00 -1°C° 0.3 mm 7 mps 737 mmHg 89%
    21:00 0°C° 0.3 mm 7 mps 737 mmHg 86%
    22:00 -1°C° 0 mm 7 mps 737 mmHg 84%
    23:00 -2°C° 0 mm 7 mps 737 mmHg 81%

    23 March, Saturday

    Time Temperature Precipitation Wind Pressure Humidity
    00:00 -3°C° 0 mm 7 mps 737 mmHg 79%
    01:00 -3°C° 0 mm 7 mps 737 mmHg 80%
    02:00 -3°C° 0 mm 7 mps 737 mmHg 80%
    03:00 -4°C° 0 mm 8 mps 737 mmHg 80%
    04:00 -4°C° 0 mm 8 mps 738 mmHg 80%
    05:00 -4°C° 0 mm 9 mps 738 mmHg 79%
    06:00 -4°C° 0 mm 9 mps 738 mmHg 79%
    07:00 -4°C° 0.1 mm 9 mps 739 mmHg 80%
    08:00 -4°C° 0.1 mm 9 mps 740 mmHg 82%
    09:00 -2°C° 0.1 mm 8 mps 741 mmHg 84%
    10:00 -2°C° 0 mm 7 mps 741 mmHg 84%
    11:00 -2°C° 0 mm 6 mps 742 mmHg 83%
    12:00 -1°C° 0 mm 6 mps 742 mmHg 83%
    13:00 0°C° 0 mm 5 mps 743 mmHg 82%
    14:00 0°C° 0 mm 5 mps 743 mmHg 81%
    15:00 0°C° 0 mm 4 mps 743 mmHg 80%
    16:00 +1°C° 0 mm 3 mps 743 mmHg 81%
    17:00 0°C° 0 mm 3 mps 743 mmHg 82%
    18:00 +1°C° 0 mm 2 mps 743 mmHg 84%
    19:00 +1°C° 0 mm 2 mps 743 mmHg 85%
    20:00 -1°C° 0 mm 3 mps 742 mmHg 86%
    21:00 -1°C° 0 mm 3 mps 742 mmHg 87%
    22:00 -2°C° 0 mm 4 mps 741 mmHg 86%
    23:00 -2°C° 0 mm 4 mps 741 mmHg 85%

    24 March, Sunday

    Time Temperature Precipitation Wind Pressure Humidity
    00:00 -1°C° 0 mm 5 mps 740 mmHg 84%
    01:00 -1°C° 0.4 mm 5 mps 739 mmHg 86%
    02:00 -2°C° 0.4 mm 6 mps 738 mmHg 88%
    03:00 -2°C° 0.4 mm 6 mps 737 mmHg 90%
    04:00 -1°C° 0.1 mm 6 mps 737 mmHg 91%
    05:00 -1°C° 0.1 mm 6 mps 736 mmHg 93%
    06:00 +1°C° 0.1 mm 5 mps 736 mmHg 94%
    07:00 +1°C° 0 mm 6 mps 736 mmHg 88%
    08:00 -1°C° 0 mm 7 mps 736 mmHg 82%
    09:00 -1°C° 0 mm 7 mps 736 mmHg 75%
    10:00 -1°C° 0.1 mm 8 mps 736 mmHg 70%
    11:00 0°C° 0.1 mm 8 mps 736 mmHg 64%
    12:00 0°C° 0.1 mm 9 mps 736 mmHg 59%
    13:00 0°C° 0.1 mm 9 mps 736 mmHg 58%
    14:00 0°C° 0.1 mm 9 mps 736 mmHg 58%
    15:00 0°C° 0.1 mm 9 mps 736 mmHg 58%
    16:00 0°C° 0 mm 9 mps 736 mmHg 61%
    17:00 -1°C° 0 mm 8 mps 736 mmHg 64%
    18:00 -2°C° 0 mm 7 mps 736 mmHg 68%
    19:00 -2°C° 0 mm 7 mps 736 mmHg 69%
    20:00 -3°C° 0 mm 6 mps 736 mmHg 70%
    21:00 -3°C° 0 mm 6 mps 736 mmHg 71%
    22:00 -3°C° 0 mm 6 mps 736 mmHg 71%
    23:00 -3°C° 0 mm 7 mps 736 mmHg 70%

    25 March, Monday

    Time Temperature Precipitation Wind Pressure Humidity
    00:00 -3°C° 0 mm 7 mps 736 mmHg 69%
    01:00 -3°C° 0 mm 7 mps 737 mmHg 70%
    02:00 -4°C° 0 mm 7 mps 737 mmHg 70%
    03:00 -5°C° 0 mm 8 mps 737 mmHg 70%
    04:00 -5°C° 0 mm 8 mps 737 mmHg 69%
    05:00 -5°C° 0 mm 8 mps 737 mmHg 68%
    06:00 -5°C° 0 mm 8 mps 738 mmHg 67%
    07:00 -4°C° 0 mm 7 mps 738 mmHg 64%
    08:00 -4°C° 0 mm 7 mps 738 mmHg 61%
    09:00 -3°C° 0 mm 7 mps 738 mmHg 57%
    10:00 -2°C° 0 mm 7 mps 738 mmHg 53%
    11:00 -1°C° 0 mm 6 mps 738 mmHg 50%
    12:00 +1°C° 0 mm 6 mps 738 mmHg 46%
    13:00 +2°C° 0 mm 6 mps 738 mmHg 45%
    14:00 +2°C° 0 mm 6 mps 738 mmHg 45%
    15:00 +3°C° 0 mm 6 mps 737 mmHg 44%
    16:00 +2°C° 0 mm 5 mps 737 mmHg 49%
    17:00 +1°C° 0 mm 4 mps 736 mmHg 54%
    18:00 0°C° 0 mm 4 mps 736 mmHg 60%
    19:00 0°C° 0 mm 4 mps 736 mmHg 63%
    20:00 0°C° 0 mm 4 mps 735 mmHg 66%
    21:00 -1°C° 0 mm 4 mps 735 mmHg 69%
    22:00 -1°C° 0 mm 4 mps 735 mmHg 71%
    23:00 -1°C° 0 mm 4 mps 735 mmHg 72%
    Show more